Cando, ND

5:50 AM CDT on June 25, 2017 (GMT -0500)
Cando

Weather History for K9D7 - December, 2012

Change the Weather History Date:

Thursday, December 6, 2012

  Actual Average (KDVL) Record (KDVL)
Temperature  
Mean Temperature 22 °F -  
Max Temperature 35 °F 24 °F 46 °F (2015)
Min Temperature 8 °F 7 °F -24 °F (1972)
Degree Days  
Heating Degree Days 42    
Moisture  
Dew Point 18 °F    
Average Humidity 91    
Maximum Humidity 100    
Minimum Humidity 80    
Precipitation  
Precipitation 0.00 in - - ()
Sea Level Pressure  
Sea Level Pressure 29.85 in    
Wind  
Wind Speed 20 mph (WNW)    
Max Wind Speed 36 mph    
Max Gust Speed 41 mph    
Visibility 10 miles    
Events      
Averages and records for this station are not official NWS values.
T = Trace of Precipitation, MM = Missing Value Source: NWS Daily Summary

Daily Weather History Graph

Daily Weather History Graph

Search for Another Location

Airport or City:

Trip Planner

Search our weather history database for the weather conditions in past years. The results will help you decide how hot, cold, wet, or windy it might be!

Date:

Astronomy

Dec. 06, 2012 Rise Set
Actual Time 8:14 AM CST 4:42 PM CST
Civil Twilight 7:37 AM CST 5:18 PM CST
Nautical Twilight 6:58 AM CST 5:58 PM CST
Astronomical Twilight 6:20 AM CST 6:36 PM CST
Moon No Moon Rise 12:39 PM CST (12/6)
Length of Visible Light 9h 40m
Length of Day
8h 28m
Waning Gibbous, 49% of the Moon is Illuminated
Dec 6
Waning Gibbous
Dec 13
New
Dec 19
First Quarter
Dec 28
Full
Jan 4
Last Quarter

Hourly Weather History & Observations

Time (CST) Temp. Windchill Dew Point Humidity Pressure Visibility Wind Dir Wind Speed Gust Speed Precip Events Conditions
12:15 AM 35.6 °F 23.2 °F 32.0 °F 87% 29.60 in 10.0 mi West 26.5 mph 39.1 mph N/A   Overcast
12:35 AM 33.8 °F 19.0 °F 32.0 °F 93% 29.60 in 10.0 mi West 35.7 mph 41.4 mph N/A   Overcast
12:55 AM 32.0 °F 18.4 °F 30.2 °F 93% 29.62 in 10.0 mi WNW 26.5 mph 38.0 mph N/A   Overcast
1:15 AM 32.0 °F 17.4 °F 28.4 °F 87% 29.63 in 10.0 mi WNW 31.1 mph 39.1 mph N/A   Overcast
1:35 AM 28.4 °F 13.5 °F 24.8 °F 86% 29.65 in 10.0 mi WNW 26.5 mph 34.5 mph N/A   Overcast
1:55 AM 26.6 °F 11.4 °F 24.8 °F 93% 29.66 in 10.0 mi WNW 25.3 mph 34.5 mph N/A   Overcast
2:15 AM 26.6 °F 11.7 °F 23.0 °F 86% 29.67 in 10.0 mi WNW 24.2 mph 31.1 mph N/A   Overcast
2:35 AM 26.6 °F 10.6 °F 23.0 °F 86% 29.68 in 10.0 mi WNW 28.8 mph 34.5 mph N/A   Overcast
2:55 AM 24.8 °F 8.1 °F 21.2 °F 86% 29.70 in 10.0 mi WNW 28.8 mph 36.8 mph N/A   Overcast
3:15 AM 23.0 °F 6.0 °F 19.4 °F 86% 29.70 in 10.0 mi WNW 27.6 mph 34.5 mph N/A   Overcast
3:35 AM 23.0 °F 7.2 °F 19.4 °F 86% 29.72 in 10.0 mi WNW 23.0 mph 29.9 mph N/A   Scattered Clouds
3:55 AM 21.2 °F 6.0 °F 19.4 °F 93% 29.73 in 10.0 mi WNW 19.6 mph - N/A   Clear
4:15 AM 21.2 °F 5.6 °F 17.6 °F 86% 29.74 in 10.0 mi WNW 20.7 mph 27.6 mph N/A   Clear
4:35 AM 21.2 °F 5.6 °F 17.6 °F 86% 29.75 in 10.0 mi WNW 20.7 mph 25.3 mph N/A   Clear
4:55 AM 19.4 °F 4.5 °F 17.6 °F 93% 29.76 in 10.0 mi WNW 17.3 mph 23.0 mph N/A   Clear
5:15 AM 19.4 °F 5.5 °F 17.6 °F 93% 29.78 in 10.0 mi WNW 15.0 mph - N/A   Partly Cloudy
5:35 AM 19.4 °F 5.5 °F 17.6 °F 93% 29.79 in 10.0 mi WNW 15.0 mph - N/A   Scattered Clouds
6:15 AM 19.4 °F 7.2 °F 17.6 °F 93% 29.80 in 10.0 mi WNW 11.5 mph - N/A   Overcast
6:35 AM 19.4 °F 7.2 °F 17.6 °F 93% 29.80 in 10.0 mi WNW 11.5 mph - N/A   Overcast
6:55 AM 19.4 °F 10.4 °F 17.6 °F 93% 29.83 in 10.0 mi West 6.9 mph - N/A   Overcast
7:15 AM 19.4 °F 7.2 °F 17.6 °F 93% 29.83 in 10.0 mi WNW 11.5 mph - N/A   Mostly Cloudy
7:35 AM 17.6 °F 5.0 °F 17.6 °F 100% 29.83 in 10.0 mi WNW 11.5 mph - N/A   Partly Cloudy
7:55 AM 17.6 °F 5.0 °F 15.8 °F 93% 29.84 in 10.0 mi WNW 11.5 mph - N/A   Clear
8:15 AM 17.6 °F 3.7 °F 15.8 °F 93% 29.85 in 10.0 mi West 13.8 mph - N/A   Clear
8:35 AM 15.8 °F 1.4 °F 14.0 °F 93% 29.86 in 10.0 mi WNW 13.8 mph - N/A   Clear
9:15 AM 15.8 °F 2.1 °F 14.0 °F 93% 29.87 in 10.0 mi WNW 12.7 mph - N/A   Partly Cloudy
9:35 AM 15.8 °F 0.9 °F 14.0 °F 93% 29.87 in 10.0 mi West 15.0 mph - N/A   Clear
9:55 AM 17.6 °F 2.2 °F 14.0 °F 86% 29.89 in 10.0 mi West 17.3 mph - N/A   Clear
10:15 AM 17.6 °F 1.7 °F 14.0 °F 86% 29.90 in 10.0 mi West 18.4 mph - N/A   Clear
10:35 AM 17.6 °F 3.2 °F 14.0 °F 86% 29.90 in 10.0 mi West 15.0 mph - N/A   Clear
10:55 AM 19.4 °F 5.0 °F 14.0 °F 80% 29.91 in 10.0 mi WNW 16.1 mph - N/A   Scattered Clouds
11:15 AM 19.4 °F 6.0 °F 15.8 °F 86% 29.90 in 10.0 mi West 13.8 mph - N/A   Partly Cloudy
11:35 AM 19.4 °F 5.0 °F 15.8 °F 86% 29.90 in 10.0 mi West 16.1 mph - N/A   Partly Cloudy
11:55 AM 19.4 °F 5.0 °F 15.8 °F 86% 29.90 in 10.0 mi West 16.1 mph - N/A   Scattered Clouds
12:15 PM 23.0 °F 10.1 °F 17.6 °F 80% 29.89 in 10.0 mi WNW 15.0 mph - N/A   Mostly Cloudy
12:35 PM 23.0 °F 8.3 °F 19.4 °F 86% 29.90 in 10.0 mi WNW 19.6 mph 25.3 mph N/A   Partly Cloudy
12:55 PM 23.0 °F 9.6 °F 19.4 °F 86% 29.90 in 10.0 mi WNW 16.1 mph 26.5 mph N/A   Mostly Cloudy
1:15 PM 24.8 °F 10.7 °F 21.2 °F 86% 29.90 in 10.0 mi WNW 19.6 mph - N/A   Overcast
1:35 PM 24.8 °F 11.5 °F 23.0 °F 93% 29.90 in 10.0 mi WNW 17.3 mph 25.3 mph N/A   Overcast
1:55 PM 26.6 °F 12.4 °F 23.0 °F 86% 29.90 in 10.0 mi WNW 21.9 mph 26.5 mph N/A   Overcast
2:15 PM 26.6 °F 12.7 °F 23.0 °F 86% 29.90 in 10.0 mi WNW 20.7 mph 28.8 mph N/A   Overcast
2:35 PM 26.6 °F 13.1 °F 24.8 °F 93% 29.89 in 10.0 mi WNW 19.6 mph 25.3 mph N/A   Overcast
2:55 PM 26.6 °F 13.1 °F 24.8 °F 93% 29.90 in 10.0 mi West 19.6 mph 26.5 mph N/A   Overcast
3:15 PM 26.6 °F 12.4 °F 24.8 °F 93% 29.90 in 10.0 mi West 21.9 mph 28.8 mph N/A   Overcast
3:35 PM 26.6 °F 13.1 °F 23.0 °F 86% 29.90 in 10.0 mi West 19.6 mph 27.6 mph N/A   Overcast
3:55 PM 26.6 °F 13.1 °F 23.0 °F 86% 29.90 in 10.0 mi WNW 19.6 mph 25.3 mph N/A   Overcast
4:15 PM 24.8 °F 12.4 °F 23.0 °F 93% 29.90 in 10.0 mi WNW 15.0 mph - N/A   Mostly Cloudy
4:35 PM 24.8 °F 11.9 °F 23.0 °F 93% 29.90 in 10.0 mi West 16.1 mph - N/A   Mostly Cloudy
4:55 PM 24.8 °F 12.4 °F 23.0 °F 93% 29.91 in 10.0 mi West 15.0 mph - N/A   Partly Cloudy
5:15 PM 24.8 °F 10.7 °F 23.0 °F 93% 29.92 in 10.0 mi West 19.6 mph - N/A   Clear
5:35 PM 23.0 °F 7.6 °F 19.4 °F 86% 29.92 in 10.0 mi WNW 21.9 mph - N/A   Clear
5:55 PM 21.2 °F 7.3 °F 17.6 °F 86% 29.92 in 10.0 mi WNW 16.1 mph - N/A   Clear
6:15 PM 19.4 °F 5.5 °F 17.6 °F 93% 29.92 in 10.0 mi WNW 15.0 mph - N/A   Clear
6:35 PM 19.4 °F 5.5 °F 17.6 °F 93% 29.92 in 10.0 mi WNW 15.0 mph - N/A   Clear
6:55 PM 19.4 °F 6.0 °F 17.6 °F 93% 29.92 in 10.0 mi WNW 13.8 mph - N/A   Clear
7:15 PM 19.4 °F 6.0 °F 17.6 °F 93% 29.92 in 10.0 mi WNW 13.8 mph - N/A   Clear
7:35 PM 17.6 °F 5.0 °F 15.8 °F 93% 29.93 in 10.0 mi WNW 11.5 mph - N/A   Clear
7:55 PM 17.6 °F 5.7 °F 15.8 °F 93% 29.93 in 10.0 mi WNW 10.4 mph - N/A   Clear
8:35 PM 15.8 °F 4.2 °F 15.8 °F 100% 29.93 in 10.0 mi NW 9.2 mph - N/A   Clear
8:55 PM 14.0 °F 2.9 °F 14.0 °F 100% 29.94 in 10.0 mi NW 8.1 mph - N/A   Clear
9:15 PM 14.0 °F 2.9 °F 14.0 °F 100% 29.95 in 10.0 mi WNW 8.1 mph - N/A   Clear
9:35 PM 10.4 °F -0.4 °F 10.4 °F 100% 29.96 in 10.0 mi WSW 6.9 mph - N/A   Clear
9:55 PM 10.4 °F -1.5 °F 8.6 °F 92% 29.96 in 10.0 mi West 8.1 mph - N/A   Clear
10:15 PM 10.4 °F -0.4 °F 10.4 °F 100% 29.96 in 10.0 mi West 6.9 mph - N/A   Clear
10:35 PM 10.4 °F -0.4 °F 8.6 °F 92% 29.97 in 10.0 mi North 6.9 mph - N/A   Clear
10:55 PM 10.4 °F 4.0 °F 10.4 °F 100% 29.97 in 10.0 mi North 3.5 mph - N/A   Clear
11:15 PM 10.4 °F -2.4 °F 8.6 °F 92% 29.97 in 10.0 mi North 9.2 mph - N/A   Clear
11:35 PM 10.4 °F -2.4 °F 8.6 °F 92% 29.97 in 10.0 mi North 9.2 mph - N/A   Clear
11:55 PM 8.6 °F -3.7 °F 6.8 °F 92% 29.98 in 10.0 mi North 8.1 mph - N/A   Clear